This demonstration page uses our WeatherBlox Daily Observations layout. Learn more.

Left ArrowRight Arrow

53.62937, 11.41316

Hourly Observations for August 30, 2021

Temp ( °F °C ) Dew Point ( °F °C ) Humidity (%) Winds ( mph kmh ) Pressure ( in mb ) Visibility ( mi km ) Precip ( " mm )
5:50 am 05:50 Mostly Cloudy 61 16 59 15 94 94 N 7 11 30.03 1017 30 48 N/A
6:20 am 06:20 Mostly Cloudy 61 16 59 15 94 94 N 7 11 30.03 1017 30 48 N/A
6:50 am 06:50 Mostly Cloudy 61 16 59 15 94 94 N 9 15 30.06 1018 30 48 N/A
7:20 am 07:20 Mostly Cloudy 61 16 59 15 94 94 N 8 13 30.06 1018 30 48 N/A
7:50 am 07:50 Mostly Cloudy 61 16 59 15 94 94 N 7 11 30.06 1018 30 48 N/A
8:20 am 08:20 Mostly Cloudy 61 16 59 15 94 94 N 8 13 30.06 1018 30 48 N/A
8:50 am 08:50 Mostly Cloudy 61 16 57 14 88 88 N 10 17 30.06 1018 30 48 N/A
9:20 am 09:20 Mostly Cloudy 61 16 57 14 88 88 N 12 19 30.06 1018 30 48 N/A
9:50 am 09:50 Mostly Cloudy 61 16 57 14 88 88 N 10 17 30.06 1018 30 48 N/A
10:20 am 10:20 Mostly Cloudy 63 17 57 14 83 83 NNE 10 17 30.09 1019 30 48 N/A
10:50 am 10:50 Mostly Cloudy 61 16 57 14 88 88 NNE 9 15 30.09 1019 30 48 N/A
11:20 am 11:20 Mostly Cloudy 61 16 57 14 88 88 NNE 13 20 30.09 1019 30 48 N/A
11:50 am 11:50 Mostly Cloudy 63 17 57 14 83 83 NNE 13 20 30.09 1019 30 48 N/A
12:20 pm 12:20 Mostly Cloudy 63 17 57 14 83 83 NNE 15 24 30.09 1019 30 48 N/A
12:50 pm 12:50 Mostly Cloudy 63 17 55 13 77 77 NNE 13 20 30.09 1019 30 48 N/A
1:20 pm 13:20 Mostly Cloudy 63 17 57 14 83 83 NNE 13 20 30.09 1019 30 48 N/A
1:50 pm 13:50 Mostly Cloudy 63 17 57 14 83 83 NNE 10 17 30.09 1019 30 48 N/A
2:20 pm 14:20 Mostly Cloudy 63 17 57 14 83 83 NNE 14 22 30.09 1019 30 48 N/A
2:50 pm 14:50 Partly Cloudy 63 17 57 14 83 83 NE 13 20 30.09 1019 30 48 N/A
3:20 pm 15:20 Partly Cloudy 63 17 57 14 83 83 NE 13 20 30.09 1019 30 48 N/A
3:50 pm 15:50 Partly Cloudy 64 18 55 13 73 73 NNE 14 22 30.09 1019 30 48 N/A
4:20 pm 16:20 Partly Cloudy 66 19 55 13 68 68 NNE 13 20 30.09 1019 30 48 N/A
4:50 pm 16:50 Partly Cloudy 66 19 55 13 68 68 NE 13 20 30.09 1019 30 48 N/A
5:20 pm 17:20 Mostly Sunny 64 18 55 13 73 73 NNE 14 22 30.09 1019 30 48 N/A
5:50 pm 17:50 Mostly Sunny 64 18 55 13 73 73 NNE 12 19 30.12 1020 30 48 N/A
6:20 pm 18:20 Partly Cloudy 64 18 54 12 68 68 NNE 9 15 30.12 1020 30 48 N/A
6:50 pm 18:50 Partly Cloudy 63 17 54 12 73 73 NE 8 13 30.12 1020 30 48 N/A
7:20 pm 19:20 Partly Cloudy 63 17 55 13 77 77 NNE 7 11 30.12 1020 30 48 N/A
7:50 pm 19:50 Mostly Sunny 63 17 55 13 77 77 NNE 6 9 30.12 1020 30 48 N/A
8:20 pm 20:20 Mostly Clear 61 16 55 13 83 83 NNE 6 9 30.12 1020 30 48 N/A
8:50 pm 20:50 Mostly Clear 61 16 55 13 83 83 N 3 6 30.12 1020 30 48 N/A
9:20 pm 21:20 Mostly Clear 59 15 55 13 88 88 VRB 1 2 30.12 1020 30 48 N/A
9:50 pm 21:50 Mostly Clear 57 14 55 13 94 94 NNW 3 6 30.12 1020 30 48 N/A

Powered by AerisWeather